Tracking 19800 objects as of 23-Jul-2019
HD Live streaming from Space Station
objects crossing your sky now

SEA LAUNCH DEMO

Track SEA LAUNCH DEMO now!
SEA LAUNCH DEMO is classified as:


NORAD ID: 25661
Int'l Code: 1999-014A
Perigee: 626.7 km
Apogee: 36,089.1 km
Inclination: 0.6 °
Period: 645.0 minutes
Semi major axis: 24728 km
RCS: 5.9526 m2 (large)
Launch date: March 28, 1999
Source: Sea Launch (SEAL)
Launch site: SEA LAUNCH (SEAL)
aabbcc
Your satellite tracking list
Your tracking list is empty




NASA's NSSDC Master Catalog

Two Line Element Set (TLE):
1 25661U 99014A   19203.52856818 -.00000159 +00000-0 -48227-3 0  9994
2 25661 000.6390 196.4467 7170237 247.8025 346.4099 02.23251946165766
Source of the keplerian elements: AFSPC